CDT,Max TemperatureF,Mean TemperatureF,Min TemperatureF,Max Dew PointF,MeanDew PointF,Min DewpointF,Max Humidity, Mean Humidity, Min Humidity, Max Sea Level PressureIn, Mean Sea Level PressureIn, Min Sea Level PressureIn, Max VisibilityMiles, Mean VisibilityMiles, Min VisibilityMiles, Max Wind SpeedMPH, Mean Wind SpeedMPH, Max Gust SpeedMPH,PrecipitationIn, CloudCover, Events, WindDirDegrees
2011-10-1,81,66,50,37,35,31,52,33,19,30.25,30.17,30.12,10,10,10,14,5,21,0.00,0,,119
2011-10-2,89,70,51,37,35,31,50,30,14,30.21,30.13,30.05,10,10,10,16,8,23,0.00,0,,138
2011-10-3,90,72,55,49,41,36,51,35,22,30.17,30.10,30.06,10,10,10,14,8,,0.00,0,,132
2011-10-4,87,70,54,44,41,38,61,37,18,30.17,30.09,30.03,10,10,10,16,8,25,0.00,0,,127
2011-10-5,80,67,54,55,47,37,58,43,31,30.07,29.98,29.91,10,10,10,22,12,30,0.00,5,Rain,135
2011-10-6,84,76,67,63,57,47,69,54,45,29.93,29.86,29.78,10,10,10,30,22,39,0.00,4,,138
2011-10-7,91,81,71,66,64,61,78,58,36,29.94,29.86,29.81,10,10,10,29,22,36,0.00,4,,144
2011-10-8,77,68,60,66,63,61,100,93,63,30.04,29.94,29.84,10,8,0,30,18,36,1.81,7,Fog-Rain-Thunderstorm,120
2011-10-9,66,60,55,61,59,55,100,93,73,30.08,30.02,29.93,10,10,7,24,11,,0.22,6,Rain,82
2011-10-10,70,60,50,58,55,51,100,89,60,30.12,30.06,29.96,10,8,1,8,3,,0.00,4,,75
2011-10-11,77,64,52,63,59,52,100,83,60,29.96,29.84,29.73,10,10,7,18,8,22,0.02,2,Rain-Thunderstorm,147
2011-10-12,82,70,59,63,56,40,96,70,27,29.94,29.79,29.70,10,10,10,22,12,30,0.00,3,Thunderstorm,36
2011-10-13,78,64,52,51,42,34,75,46,20,30.05,29.96,29.89,10,10,10,10,7,,0.00,0,,315
2011-10-14,86,68,51,53,49,45,88,57,24,29.95,29.89,29.82,10,10,10,18,8,28,0.00,0,,126
2011-10-15,83,69,55,56,52,48,84,60,33,30.06,29.99,29.95,10,10,10,15,10,,0.00,0,,122
2011-10-16,90,71,53,58,53,49,92,61,25,30.00,29.92,29.84,10,10,10,16,7,,0.00,0,,164
2011-10-17,78,67,56,57,50,33,95,61,36,29.98,29.80,29.66,10,10,10,29,10,38,0.01,1,,351
2011-10-18,67,57,47,41,33,26,76,45,22,30.19,30.12,30.01,10,10,10,28,20,38,0.00,0,Rain,343
2011-10-19,67,54,42,33,30,26,62,43,22,30.17,30.12,30.06,10,10,10,22,11,26,0.00,0,,342
2011-10-20,71,55,39,38,34,31,80,54,25,30.09,30.04,29.95,10,10,10,20,7,26,0.00,0,,107
2011-10-21,78,61,44,46,39,35,76,51,23,30.16,30.08,30.03,10,10,10,10,7,,0.00,0,,79
2011-10-22,82,66,50,61,56,47,92,66,45,30.04,29.94,29.87,10,10,10,18,8,,0.00,2,,114
2011-10-23,82,68,53,57,51,42,97,66,25,30.09,30.03,29.96,10,9,2,12,6,,0.00,0,,349
2011-10-24,86,66,48,53,46,38,95,56,19,30.17,30.08,30.00,10,10,10,24,8,29,0.00,0,,137
2011-10-25,90,72,54,57,53,50,91,58,27,29.99,29.87,29.75,10,10,10,18,11,26,0.00,1,,157
2011-10-26,72,62,54,56,44,37,76,54,42,30.00,29.91,29.75,10,10,6,26,14,36,0.00,3,,22
2011-10-27,50,46,42,45,43,36,100,95,54,30.23,30.12,29.99,10,8,2,30,18,37,1.02,7,Rain-Thunderstorm,4
2011-10-28,58,48,38,40,36,32,92,68,37,30.34,30.28,30.23,10,10,10,10,7,,0.00,0,,314
2011-10-29,63,49,35,42,39,35,98,70,39,30.27,30.15,30.00,10,10,10,21,5,26,0.00,0,,161
2011-10-30,66,54,41,43,40,39,91,67,38,30.21,30.11,29.98,10,10,10,17,8,25,0.00,0,,53
2011-10-31,71,55,39,49,44,38,93,71,41,30.21,30.11,29.99,10,9,5,13,3,,0.00,0,,173